Regional Weather Roundup
Issued by NWS

Home | Current Version | Previous Version | Graphics & Text | Print | Product List | Glossary On
Versions: 1 2 3 4 5 6 7 8 9 10 11 12 13 14 15 16 17 18 19 20 21 22 23 24 25 26 27 28 29 30 31 32 33 34 35 36 37 38 39 40 41 42 43 44 45 46 47 48 49 50
496
ASUS45 KABQ 241401
RWRNM
NEW MEXICO REGIONAL WEATHER ROUNDUP
NATIONAL WEATHER SERVICE ALBUQUERQUE NM
800 AM MDT SUN SEP 24 2017

NOTE: "FAIR" MEANS FEW OR NO CLOUDS BELOW 12,000 FEET AGL WITH NO
       SIGNIFICANT WEATHER OR OBSTRUCTIONS TO VISION.

      THIS PRODUCT IS RELEASED AS TWO VERSIONS.  ONE VERSION NEAR
      THE TOP OF THE HOUR CONTAINING PRELIMINARY DATA FROM ALBUQUERQUE
      AND OTHER STATIONS.  A FINAL VERSION WITH ADDITIONAL DATA IS
      ISSUED ABOUT 10 MINUTES AFTER THE HOUR.

NMZ501-503-504-510>518-241500-
NORTHWEST PLATEAU/NORTHCENTRAL MOUNTAINS

CITY           SKY/WX    TMP DP  RH WIND       PRES   REMARKS
FARMINGTON     FAIR      40  28  62 E5        29.96R
LOS ALAMOS     PTSUNNY   50  42  72 CALM      30.03R
SANTA FE       FAIR      47  47 100 N3        29.99R
TAOS           CLOUDY    48  45  89 CALM      30.05R
ANGEL FIRE     FAIR      38  37  97 CALM      30.07R

$$
NMZ402-403-502-505>509-241500-
WESTCENTRAL MOUNTAINS/SOUTHWEST MOUNTAINS

CITY           SKY/WX    TMP DP  RH WIND       PRES   REMARKS
GALLUP         FAIR      39  18  42 CALM      30.00S
GRANTS         FAIR      37  23  57 CALM      30.04R
SILVER CITY    PTSUNNY   55  33  42 N5        29.98R

$$
NMZ407-409-411-412-241500-
SOUTHERN DESERTS

CITY           SKY/WX    TMP DP  RH WIND       PRES   REMARKS
DEMING         FAIR      54  33  45 W3        29.93R
LAS CRUCES     PTSUNNY   60  33  37 NW5       29.94R
HOLLOMAN AFB   PTSUNNY   62  46  55 SE5       29.93R
ALAMOGORDO     FAIR      64  45  48 SE5       29.93R
T OR C         FAIR      58  33  39 NW7       29.94R

$$
NMZ519>523-241500-
CENTRAL VALLEYS/CENTRAL HIGHLANDS

CITY           SKY/WX    TMP DP  RH WIND       PRES   REMARKS
ALBUQUERQUE    FAIR      52  34  50 SE6       29.98R
DOUBLE EAGLE   MOSUNNY   48  30  49 W6        30.00R
CLINES CORNERS FAIR      49  42  77 NW9       30.02R
BELEN          FAIR      53  19  25 W7        29.97R
SOCORRO        FAIR      56  23  27 CALM      29.96R

$$
NMZ524>526-539-540-241500-
SOUTHCENTRAL MOUNTAINS

CITY           SKY/WX    TMP DP  RH WIND       PRES   REMARKS
RUIDOSO        NOT AVBL

$$
NMZ527>531-241500-
NORTHEAST HIGHLANDS/NORTHEAST PLAINS

CITY           SKY/WX    TMP DP  RH WIND       PRES   REMARKS
LAS VEGAS      FOG       51  51 100 CALM      29.99R VSB 1/4
RATON          NOT AVBL
CLAYTON        CLOUDY    59  59 100 S13       29.92S

$$
NMZ532>537-241500-
EASTCENTRAL PLAINS

CITY           SKY/WX    TMP DP  RH WIND       PRES   REMARKS
SANTA ROSA     CLOUDY    62  59  91 S8        29.90R
TUCUMCARI      CLOUDY    66  63  90 SW6       29.87R
CANNON AFB     NOT AVBL
CLOVIS AIRPORT CLOUDY    64  62  93 S10       29.92S

$$
NMZ028-029-538-241500-
SOUTHEAST PLAINS

CITY           SKY/WX    TMP DP  RH WIND       PRES   REMARKS
ROSWELL        CLOUDY    63  63 100 S8        29.88R
ARTESIA        FAIR      63  63 100 S5        29.88S
CARLSBAD       FAIR      64  64 100 SE8       29.86R
HOBBS          PTSUNNY   64  64 100 S8        29.90R


$$




USA.gov is the U.S. government's official web portal to all federal, state and local government web resources and services.